This is the latest recevied weather packets stored in our database for station/object KC5TIL-3. If no packets are shown the sender has not sent any weather packets the latest 1 day(s).
| Time | Temp. | Humidity | Pressure | Rain* | Wind** | Luminosity | Snow |
|---|---|---|---|---|---|---|---|
| 1777974208 | 22.22° C | 73% | 1001.8 hPa | 0 mm | 5.36 m/s, 194° | - | - |
| 1777973908 | 21.67° C | 73% | 1001.8 hPa | 0 mm | 5.36 m/s, 192° | - | - |
| 1777973604 | 22.22° C | 73% | 1001.8 hPa | 0 mm | 5.36 m/s, 205° | - | - |
| 1777973307 | 22.22° C | 72% | 1001.8 hPa | 0 mm | 5.81 m/s, 203° | - | - |
| 1777973005 | 22.22° C | 72% | 1001.8 hPa | 0 mm | 4.47 m/s, 239° | - | - |
| 1777972707 | 21.67° C | 72% | 1001.8 hPa | 0 mm | 5.36 m/s, 216° | - | - |
| 1777972409 | 22.22° C | 72% | 1001.8 hPa | 0 mm | 5.81 m/s, 188° | - | - |
| 1777972108 | 22.22° C | 71% | 1001.8 hPa | 0 mm | 4.47 m/s, 210° | - | - |
| 1777971809 | 22.22° C | 71% | 1001.8 hPa | 0 mm | 6.71 m/s, 193° | - | - |
| 1777971512 | 22.22° C | 70% | 1001.8 hPa | 0 mm | 5.36 m/s, 203° | - | - |
| 1777971210 | 22.22° C | 70% | 1001.8 hPa | 0 mm | 4.92 m/s, 197° | - | - |
| 1777970912 | 22.22° C | 69% | 1001.8 hPa | 0 mm | 4.92 m/s, 217° | - | - |
| 1777970614 | 22.22° C | 69% | 1001.8 hPa | 0 mm | 6.26 m/s, 210° | - | - |
| 1777970308 | 22.22° C | 68% | 1001.8 hPa | 0 mm | 5.36 m/s, 172° | - | - |
| 1777970009 | 22.22° C | 68% | 1001.8 hPa | 0 mm | 4.92 m/s, 208° | - | - |
| 1777969711 | 22.22° C | 67% | 1001.8 hPa | 0 mm | 4.47 m/s, 197° | - | - |
| 1777969410 | 22.22° C | 66% | 1001.8 hPa | 0 mm | 4.47 m/s, 202° | - | - |
| 1777969111 | 22.22° C | 66% | 1001.8 hPa | 0 mm | 5.36 m/s, 136° | - | - |
| 1777968813 | 22.22° C | 65% | 1001.8 hPa | 0 mm | 5.81 m/s, 153° | - | - |
| 1777968209 | 22.22° C | 63% | 1001.8 hPa | 0 mm | 5.36 m/s, 231° | - | - |
| 1777967911 | 22.22° C | 63% | 1001.8 hPa | 0 mm | 4.47 m/s, 190° | - | - |
| 1777967610 | 22.22° C | 62% | 1001.8 hPa | 0 mm | 4.47 m/s, 144° | - | - |
| 1777967014 | 22.22° C | 60% | 1002.8 hPa | 0 mm | 4.47 m/s, 202° | - | - |
| 1777966712 | 22.22° C | 59% | 1002.8 hPa | 0 mm | 4.92 m/s, 213° | - | - |
| 1777966414 | 22.22° C | 58% | 1002.8 hPa | 0 mm | 4.02 m/s, 229° | - | - |
* Rain latest hour (hover to see other rain measurements)
** Current wind speed in m/s (hover to see current wind gust speed)